Regional Weather Roundup
Issued by NWS

Home | Current Version | Previous Version | Text Only | Print | Product List | Glossary Off
Versions: 1 2 3 4 5 6 7 8 9 10 11 12 13 14 15 16 17 18 19 20 21 22 23 24 25 26 27 28 29 30 31 32 33 34 35 36 37 38 39 40 41 42 43 44 45 46 47 48 49 50

000
ASUS45 KTFX 030710
RWRMT
MONTANA REGIONAL WEATHER ROUNDUP
NATIONAL WEATHER SERVICE GREAT FALLS MT
100 AM MDT FRI JUL 03 2015

NOTE: "FAIR" INDICATES FEW OR NO CLOUDS BELOW 12000 FEET WITH NO
SIGNIFICANT WEATHER AND/OR OBSTRUCTIONS TO VISIBILITY.

MTZ001>007-043-030800-
WEST OF THE DIVIDE

CITY           SKY/WX    TMP DP  RH WIND       PRES   REMARKS
KALISPELL      SUNNY     63  54  72 W5        29.96R
MISSOULA       CLEAR     72  48  42 CALM      29.99R
BUTTE          CLEAR     64  42  44 SE5       30.15R
MULLAN PASS    CLEAR     68  37  32 N6        30.19S
DEER LODGE       N/A     64  48  55 CALM      30.12S
EUREKA           N/A     66  46  48 CALM      29.95R
HAMILTON         N/A     64  50  59 S5        30.02R
RONAN            N/A     68  52  56 CALM      30.03R
$$

MTZ008-052>055-030800-
SOUTHWEST MONTANA

CITY           SKY/WX    TMP DP  RH WIND       PRES   REMARKS
BOZEMAN        CLEAR     69  49  48 W12       30.07R
DILLON         CLEAR     63  45  51 SE5       30.11R
W YELLOWSTONE  CLEAR     54  43  66 CALM      30.24R
THREE FORKS      N/A     67  58  72 CALM      30.06S
TWIN BRIDGES     N/A     70  39  32 N6        30.08R
$$

MTZ009-010-012-014-046-048-049-054-030800-
EAST SLOPES AND CENTRAL MONTANA

CITY           SKY/WX    TMP DP  RH WIND       PRES   REMARKS
CUT BANK       MOCLDY    66  48  52 SE8       30.04F
GREAT FALLS    CLEAR     70  48  45 SE8       30.03F
MALMSTROM AFB  CLEAR     69  50  50 SE13      30.03F
HELENA         CLEAR     72  48  42 W8        30.03S
$$

MTZ011-013-016-021-045-047-050-051-030800-
NORTH CENTRAL MONTANA

CITY           SKY/WX    TMP DP  RH WIND       PRES   REMARKS
HAVRE          CLEAR     65  54  67 NE3       30.00S HAZE
LEWISTOWN      MOCLDY    65  52  62 E8        30.11F
CHINOOK          N/A     64  55  72 E6        30.01F
FORT BENTON      N/A     72  54  53 E12       30.01F
$$

MTZ017>020-022>027-061-062-030800-
NORTHEAST MONTANA

CITY           SKY/WX    TMP DP  RH WIND       PRES   REMARKS
GLASGOW        CLEAR     61  54  77 E8        30.02F HAZE
JORDAN           N/A     60  53  77 W3        30.05S
SIDNEY         CLEAR     64  57  77 NW5       30.02S
WOLF POINT     PTCLDY    63  59  87 CALM      30.03S FOG
MALTA            N/A     60  52  75 CALM      30.00S
PLENTYWOOD       N/A     61  57  88 NE7       30.03S
POPLAR           N/A    N/A N/A N/A W3        30.03S
SCOBEY           N/A     58  52  80 CALM      30.03S
$$

MTZ028>42-056>058-030800-
SOUTHCENTRAL AND SOUTHEAST MONTANA

CITY           SKY/WX    TMP DP  RH WIND       PRES   REMARKS
BAKER          CLEAR     60  56  86 CALM      30.08S FOG
BILLINGS       PTCLDY    70  50  49 CALM      30.11S
LIVINGSTON     CLEAR     67  50  54 E13       30.11S
MILES CITY     CLEAR     65  54  67 NW6       30.04F
FORSYTH          N/A     64  55  72 CALM      30.06S
LAUREL           N/A     65  48  53 CALM      30.08F
ROUNDUP          N/A     66  50  56 CALM      30.01F
$$

REGIONAL REPORTS...DAKOTAS

CITY           SKY/WX    TMP DP  RH WIND       PRES   REMARKS
WILLISTON      CLEAR     65  61  87 N5        30.02S
MINOT          MOCLDY    64  60  87 SW3       29.97S FOG
DICKINSON      CLEAR     61  57  87 CALM      30.03S FOG
BEACH          FAIR      59  59 100 CALM      30.07S FOG
CROSBY         FAIR      63  63 100 W6        30.02S FOG
BISMARCK       CLOUDY    66  63  90 CALM      29.99S FOG
GRAND FORKS    CLOUDY    65  64  97 NW6       29.88F FOG
FARGO          CLEAR     64  58  80 S8        29.92F
BUFFALO SD       N/A     65  58  78 W5        30.03R
RAPID CITY     CLEAR     60  57  89 NW6       30.10S
$$

REGIONAL REPORTS...WYOMING/IDAHO/WASHINGTON

CITY           SKY/WX    TMP DP  RH WIND       PRES   REMARKS
GILLETTE       CLEAR     56  52  86 S6        30.15F
SHERIDAN       CLEAR     58  52  80 CALM      30.12F
BUFFALO WY     CLEAR     60  52  74 W8        30.18F
CODY           CLEAR     63  48  59 CALM      30.18F
YELLOWSTONE LA   N/A     49  38  65 NW3       30.35R
IDAHO FALLS    CLEAR     61  52  72 N5        30.04S
SALMON         CLEAR     68  39  34 SE5       30.02R
BOISE          CLEAR     80  46  30 S3        29.89R
SPOKANE        PTCLDY    82  39  21 CALM      29.91F
$$

REGIONAL REPORTS...ALBERTA

CITY           SKY/WX    TMP DP  RH WIND       PRES   REMARKS
EDMONTON       CLEAR     70  54  56 SW8       29.89F
CALGARY        MOCLDY    68  59  73 S6        30.01F
LETHBRIDGE     MOCLDY    63  55  77 S8        29.98S
MEDICINE HAT   CLEAR     68  57  68 S6        29.97F HAZE
WATERTON GATE    N/A     61  52  72 S9          N/A
MILK RIVER       N/A     61  52  72 S5          N/A
ONEFOUR          N/A     61  54  77 E9          N/A
$$

REGIONAL REPORTS...SASKATCHEWAN

CITY           SKY/WX    TMP DP  RH WIND       PRES   REMARKS
SWIFT CURRENT  CLEAR     61  57  88 SW9       30.02S FOG
REGINA         PTCLDY    61  59  94 E5        30.00F SMOKE
SASKATOON      MOCLDY    63  57  82 CALM      29.98R
CYPRESS HILLS    N/A     59  52  77 S6          N/A
VAL MARIE        N/A     54  50  87 N2          N/A
ROCKGLEN         N/A     61  57  88 SW2         N/A
ASSINIBOIA       N/A     61  59  94 S6          N/A
$$



USA.gov is the U.S. government's official web portal to all federal, state and local government web resources and services.